Location: ???? ?????
(30.0052°N, 31.2891°E)
Time: 21:54:10
(UTC+00:00)

FALCON 9 R/B - Pass Details

Date: 26 May 2022
Orbit: 297 x 9970 km, 34.5° (Epoch: 04 July)

Event Time Altitude Azimuth Distance (km) Brightness Sun altitude
Rises 01:40:25 0° 293° (WNW) 9,222 7.2 -15.0°
Reaches altitude 10° 01:49:52 10° 287° (WNW) 6,295 6.3 -13.3°
Maximum altitude 02:02:22 30° 234° (SW) 2,240 3.8 -11.0°
Drops below altitude 10° 02:07:09 10° 172° (S) 2,324 4.3 -10.2°
Sets 02:08:57 0° 158° (SSE) 2,851 4.9 -9.8°
